Regional Weather Roundup
Issued by NWS

Home | Current Version | Previous Version | Graphics & Text | Print | Product List | Glossary On
Versions: 1 2 3 4 5 6 7 8 9 10 11 12 13 14 15 16 17 18 19 20 21 22 23 24 25 26 27 28 29 30 31 32 33 34 35 36 37 38 39 40 41 42 43 44 45 46 47 48 49 50
271
ASUS44 KJAN 250610
RWRMS

MISSISSIPPI HOURLY WEATHER ROUNDUP
NATIONAL WEATHER SERVICE JACKSON MS
100 AM CDT FRI JUL 25 2014

NOTE: "FAIR: INDICATES FEW OR NO CLOUDS BELOW 12,000 FEET WITH NO
SIGNIFICANT WEATHER AND/OR OBSTRUCTIONS TO VISIBILITY.

MSZ001>002-007>008-010>013-018>021-025>028-034>036-250700-
NORTHWEST MISSISSIPPI

CITY           SKY/WX    TMP DP  RH WIND       PRES   REMARKS
CLARKSDALE     FAIR      64  63  94 CALM      30.04S
CLEVELAND      FAIR      65  63  92 CALM      30.03S
GREENWOOD      CLEAR     65  62  90 CALM      30.03S
6HR MIN TEMP:  65; 6HR MAX TEMP:  82;

GREENVILLE     CLEAR     68  66  93 CALM      30.03S
6HR MIN TEMP:  68; 6HR MAX TEMP:  83;

GRENADA        FAIR      63  61  94 CALM      30.04S
OLIVE BRANCH   CLEAR     66  66 100 CALM      30.04S
OXFORD         FAIR      61  59  94 CALM      30.05F
TUNICA         CLEAR     64  61  88 N3        30.04S
$$

MSZ003>006-009-014>017-022>024-029>033-037>039-250700-
NORTHEAST MISSISSIPPI

CITY           SKY/WX    TMP DP  RH WIND       PRES   REMARKS
BELMONT        FAIR      64  62  96 CALM      30.02F
COLUMBUS AFB   CLEAR     65  65 100 CALM      30.01F
6HR MIN TEMP:  64; 6HR MAX TEMP:  83;

CORINTH        FAIR      64  63  94 CALM      30.02F
GOLDN TRIANGLE CLEAR     68  63  83 N3        30.01F
STARKVILLE     FAIR      64  63  94 CALM      30.01F
TUPELO         CLEAR     66  62  87 CALM      30.02S
6HR MIN TEMP:  66; 6HR MAX TEMP:  80;

$$

MSZ040-058-250700-
CENTRAL MISSISSIPPI

CITY           SKY/WX    TMP DP  RH WIND       PRES   REMARKS
JACKSON INTL   CLEAR     76  71  85 N5        30.02R
6HR MIN TEMP:  76; 6HR MAX TEMP:  87;

JACKSON HAWKNS CLEAR     76  67  73 CALM      30.03R
6HR MIN TEMP:  76; 6HR MAX TEMP:  87;

MERIDIAN KEY   MOCLDY    75  73  93 N7        30.00F
6HR MIN TEMP:  75; 6HR MAX TEMP:  79; 6HR PCP:  0.01;

MERIDIAN NAS   CLEAR     74  68  81 N7        30.01F
6HR MIN TEMP:  74; 6HR MAX TEMP:  79;

RAYMOND        FAIR      73  68  83 CALM      30.02S
VICKSBURG      CLEAR     74  70  87 N3        30.01F
6HR MIN TEMP:  74; 6HR MAX TEMP:  86;

$$

MSZ059>079-250700-
SOUTH MISSISSIPPI

CITY           SKY/WX    TMP DP  RH WIND       PRES   REMARKS
BROOKHAVEN     MOCLDY    73  73 100 N3        30.03S FOG
COLUMBIA       FAIR      75  73  94 CALM      29.99S
HATTIESBURG    MOCLDY    78  74  87 CALM      30.00S FOG
6HR MIN TEMP:  78; 6HR MAX TEMP:  88;

MCCOMB         MOCLDY    74  72  93 CALM      30.01R
6HR MIN TEMP:  74; 6HR MAX TEMP:  82;

NATCHEZ        CLEAR     75  73  94 CALM      30.02R
6HR MIN TEMP:  75; 6HR MAX TEMP:  88; 6HR PCP:  0.03;

PINE BELT      MOCLDY    75  72  88 CALM      30.01S
6HR MIN TEMP:  75; 6HR MAX TEMP:  88;

$$

MSZ080>082-250700-
COASTAL MISSISSIPPI

CITY           SKY/WX    TMP DP  RH WIND       PRES   REMARKS
BILOXI         CLEAR     80  74  82 S3        29.98S
6HR MIN TEMP:  80; 6HR MAX TEMP:  83;

PASCAGOULA     CLEAR     74  73  97 CALM      29.99S
6HR MIN TEMP:  74; 6HR MAX TEMP:  83;

GULFPORT       CLEAR     80  74  81 CALM      29.97F
6HR MIN TEMP:  79; 6HR MAX TEMP:  87;

$$



USA.gov is the U.S. government's official web portal to all federal, state and local government web resources and services.